When you browse on this site, cookies collect data to enhance your experience and personalize the content and advertising you see.
Visit our Privacy Policy to learn more. By continuing to use the site, you agree to this use of cookies and data.
  • In Latvia
  • List of Countries
  • For 7 days
  • Water Temperature
  • Weather Map
  • Weather Widgets
  • user-avatar
    Login

    Hourly Weather Ludza

    Today, 20 February, Thursday

    Time Temperature Precipitation Wind Pressure Humidity
    00:00 +2°C° 0 mm 3 mps 743 mmHg 89%
    01:00 +2°C° 0 mm 3 mps 744 mmHg 90%
    02:00 +2°C° 0 mm 3 mps 744 mmHg 90%
    03:00 +2°C° 0 mm 3 mps 744 mmHg 91%
    04:00 +2°C° 0 mm 3 mps 744 mmHg 92%
    05:00 +2°C° 0 mm 3 mps 744 mmHg 93%
    06:00 +2°C° 0.1 mm 3 mps 745 mmHg 92%
    07:00 +2°C° 0.1 mm 3 mps 745 mmHg 92%
    08:00 +2°C° 0.1 mm 3 mps 746 mmHg 92%
    09:00 +2°C° 0.1 mm 3 mps 746 mmHg 90%
    10:00 +2°C° 0.1 mm 3 mps 747 mmHg 88%
    11:00 +3°C° 0.1 mm 3 mps 747 mmHg 87%
    12:00 +3°C° 0 mm 3 mps 747 mmHg 84%
    13:00 +3°C° 0 mm 3 mps 748 mmHg 82%
    14:00 +3°C° 0 mm 3 mps 748 mmHg 80%
    15:00 +3°C° 0 mm 3 mps 748 mmHg 80%
    16:00 +3°C° 0 mm 3 mps 748 mmHg 81%
    17:00 +3°C° 0 mm 2 mps 748 mmHg 82%
    18:00 +3°C° 0 mm 2 mps 749 mmHg 82%
    19:00 +3°C° 0 mm 2 mps 749 mmHg 83%
    20:00 +4°C° 0 mm 1 mps 749 mmHg 83%
    21:00 +2°C° 0 mm 2 mps 749 mmHg 85%
    22:00 +1°C° 0 mm 2 mps 749 mmHg 86%
    23:00 +1°C° 0 mm 2 mps 749 mmHg 87%

    Tomorrow, 21 February, Friday

    Time Temperature Precipitation Wind Pressure Humidity
    00:00 +1°C° 0 mm 2 mps 749 mmHg 86%
    01:00 0°C° 0 mm 3 mps 749 mmHg 86%
    02:00 0°C° 0 mm 3 mps 749 mmHg 86%
    03:00 0°C° 0 mm 3 mps 748 mmHg 87%
    04:00 0°C° 0 mm 3 mps 748 mmHg 88%
    05:00 -1°C° 0 mm 4 mps 747 mmHg 88%
    06:00 -1°C° 0 mm 4 mps 747 mmHg 87%
    07:00 -1°C° 0 mm 4 mps 746 mmHg 86%
    08:00 -1°C° 0 mm 4 mps 746 mmHg 85%
    15:00 +1°C° 0 mm 6 mps 745 mmHg 65%
    16:00 +1°C° 0 mm 5 mps 745 mmHg 67%
    17:00 +1°C° 0 mm 5 mps 745 mmHg 69%
    18:00 0°C° 0 mm 5 mps 745 mmHg 76%
    19:00 0°C° 0 mm 5 mps 745 mmHg 83%
    20:00 0°C° 0 mm 5 mps 746 mmHg 90%
    21:00 0°C° 0 mm 4 mps 746 mmHg 89%
    22:00 0°C° 0 mm 4 mps 746 mmHg 88%
    23:00 0°C° 0 mm 4 mps 746 mmHg 88%

    Day after tomorrow, 22 February, Saturday

    Time Temperature Precipitation Wind Pressure Humidity
    00:00 0°C° 0 mm 4 mps 747 mmHg 89%
    01:00 -1°C° 0 mm 4 mps 747 mmHg 91%
    02:00 -1°C° 0 mm 4 mps 747 mmHg 92%
    03:00 -1°C° 0 mm 4 mps 747 mmHg 92%
    04:00 -1°C° 0 mm 4 mps 747 mmHg 93%
    05:00 -1°C° 0 mm 4 mps 747 mmHg 93%
    06:00 -1°C° 0 mm 5 mps 747 mmHg 91%
    07:00 -1°C° 0 mm 5 mps 747 mmHg 90%
    08:00 0°C° 0 mm 5 mps 747 mmHg 88%
    09:00 0°C° 0 mm 5 mps 747 mmHg 85%
    10:00 +1°C° 0 mm 6 mps 747 mmHg 83%
    11:00 +1°C° 0 mm 6 mps 746 mmHg 80%
    12:00 +1°C° 0 mm 6 mps 746 mmHg 78%
    13:00 0°C° 0 mm 7 mps 745 mmHg 76%
    14:00 0°C° 0 mm 7 mps 744 mmHg 74%
    15:00 0°C° 0.2 mm 8 mps 743 mmHg 80%
    16:00 -1°C° 0.2 mm 8 mps 742 mmHg 86%
    17:00 -1°C° 0.2 mm 8 mps 741 mmHg 92%
    18:00 -1°C° 0.2 mm 8 mps 740 mmHg 92%
    19:00 -1°C° 0.2 mm 8 mps 738 mmHg 91%
    20:00 0°C° 0.2 mm 8 mps 737 mmHg 90%
    21:00 0°C° 1.1 mm 8 mps 736 mmHg 91%
    22:00 0°C° 1.1 mm 9 mps 734 mmHg 91%
    23:00 +1°C° 1.1 mm 9 mps 732 mmHg 92%

    23 February, Sunday

    Time Temperature Precipitation Wind Pressure Humidity
    00:00 +1°C° 1 mm 9 mps 731 mmHg 91%
    01:00 +1°C° 1 mm 8 mps 731 mmHg 91%
    02:00 +1°C° 1 mm 8 mps 730 mmHg 91%
    03:00 0°C° 0.9 mm 8 mps 730 mmHg 86%
    04:00 0°C° 0.9 mm 7 mps 730 mmHg 80%
    05:00 -1°C° 0.9 mm 7 mps 731 mmHg 74%
    06:00 -1°C° 0 mm 7 mps 731 mmHg 75%
    07:00 -1°C° 0 mm 6 mps 731 mmHg 76%
    08:00 -2°C° 0 mm 6 mps 732 mmHg 78%
    09:00 -1°C° 0 mm 6 mps 732 mmHg 74%
    10:00 -1°C° 0 mm 7 mps 732 mmHg 71%
    11:00 0°C° 0 mm 7 mps 732 mmHg 68%
    12:00 0°C° 0.1 mm 7 mps 732 mmHg 66%
    13:00 0°C° 0.1 mm 7 mps 732 mmHg 65%
    14:00 0°C° 0.1 mm 7 mps 732 mmHg 63%
    15:00 0°C° 0 mm 7 mps 732 mmHg 65%
    16:00 +1°C° 0 mm 6 mps 733 mmHg 68%
    17:00 0°C° 0 mm 5 mps 733 mmHg 70%
    18:00 0°C° 0 mm 5 mps 733 mmHg 72%
    19:00 0°C° 0 mm 5 mps 733 mmHg 75%
    20:00 -1°C° 0 mm 5 mps 733 mmHg 77%
    21:00 -1°C° 0 mm 5 mps 733 mmHg 78%
    22:00 -1°C° 0 mm 5 mps 732 mmHg 80%
    23:00 -2°C° 0 mm 5 mps 732 mmHg 81%

    24 February, Monday

    Time Temperature Precipitation Wind Pressure Humidity
    00:00 -1°C° 0 mm 5 mps 732 mmHg 82%
    01:00 -1°C° 0 mm 5 mps 732 mmHg 83%
    02:00 -1°C° 0 mm 5 mps 732 mmHg 84%
    03:00 -1°C° 0 mm 5 mps 732 mmHg 85%
    04:00 -1°C° 0 mm 4 mps 732 mmHg 85%
    05:00 -1°C° 0 mm 4 mps 732 mmHg 86%
    06:00 -1°C° 0 mm 4 mps 733 mmHg 88%
    07:00 -1°C° 0 mm 4 mps 733 mmHg 90%
    08:00 -1°C° 0 mm 4 mps 733 mmHg 92%
    09:00 -1°C° 0.2 mm 4 mps 734 mmHg 89%
    10:00 -1°C° 0.2 mm 4 mps 735 mmHg 87%
    11:00 0°C° 0.2 mm 4 mps 735 mmHg 85%
    12:00 0°C° 0 mm 5 mps 736 mmHg 80%
    13:00 0°C° 0 mm 5 mps 736 mmHg 76%
    14:00 +1°C° 0 mm 5 mps 737 mmHg 72%
    15:00 0°C° 0.1 mm 5 mps 738 mmHg 72%
    16:00 0°C° 0.1 mm 4 mps 739 mmHg 71%
    17:00 0°C° 0.1 mm 4 mps 740 mmHg 71%
    18:00 -1°C° 0 mm 4 mps 741 mmHg 73%
    19:00 -2°C° 0 mm 4 mps 742 mmHg 74%
    20:00 -2°C° 0 mm 4 mps 743 mmHg 76%
    21:00 -2°C° 0 mm 3 mps 744 mmHg 75%
    22:00 -2°C° 0 mm 3 mps 744 mmHg 74%
    23:00 -4°C° 0 mm 3 mps 745 mmHg 73%

    25 February, Tuesday

    Time Temperature Precipitation Wind Pressure Humidity
    00:00 -3°C° 0 mm 2 mps 745 mmHg 75%
    01:00 -3°C° 0 mm 2 mps 745 mmHg 76%
    02:00 -1°C° 0 mm 1 mps 746 mmHg 78%
    03:00 -1°C° 0 mm 1 mps 745 mmHg 77%
    04:00 -1°C° 0 mm 1 mps 745 mmHg 76%
    05:00 -3°C° 0 mm 2 mps 745 mmHg 75%
    06:00 -3°C° 0 mm 2 mps 745 mmHg 72%
    07:00 -4°C° 0 mm 3 mps 744 mmHg 68%
    08:00 -3°C° 0 mm 4 mps 744 mmHg 65%
    09:00 -3°C° 0 mm 4 mps 743 mmHg 61%
    10:00 -2°C° 0 mm 5 mps 742 mmHg 57%
    11:00 -2°C° 0 mm 6 mps 741 mmHg 53%
    12:00 -2°C° 0 mm 6 mps 740 mmHg 52%
    13:00 -1°C° 0 mm 6 mps 739 mmHg 52%
    14:00 -1°C° 0 mm 7 mps 738 mmHg 51%
    15:00 -1°C° 0 mm 7 mps 737 mmHg 61%
    16:00 -2°C° 0 mm 7 mps 737 mmHg 71%
    17:00 -2°C° 0 mm 7 mps 736 mmHg 81%
    18:00 -2°C° 0 mm 7 mps 735 mmHg 84%
    19:00 -2°C° 0 mm 6 mps 735 mmHg 86%
    20:00 -1°C° 0 mm 6 mps 735 mmHg 88%
    21:00 0°C° 0 mm 5 mps 734 mmHg 87%
    22:00 0°C° 0 mm 5 mps 734 mmHg 87%
    23:00 0°C° 0 mm 5 mps 734 mmHg 86%
    Show more